Tracking 23764 objects as of 16-Oct-2021
HD Live streaming from Space Station
objects crossing your sky now

IRIDIUM 33 DEB

Track IRIDIUM 33 DEB now!
10-day predictions


NORAD ID: 36563
Int'l Code: 1997-051WS
Perigee: 596.9 km
Apogee: 657.3 km
Inclination: 86.4 °
Period: 97.1 minutes
Semi major axis: 6998 km
RCS: 0.003 m2 (small)
Launch date: September 14, 1997
Source: United States (US)
Launch site: TYURATAM MISSILE AND SPACE COMPLEX (TTMTR)

Note: This is SATELLITE DEBRIS
aabbcc
Your satellite tracking list
Your tracking list is empty




NASA's NSSDC Master Catalog

Two Line Element Set (TLE):
1 36563U 97051WS  21288.67962834  .00013381  00000-0  16165-2 0  9998
2 36563  86.3525 261.0586 0043149  62.3639 298.1954 14.82980122647431
Source of the keplerian elements: AFSPC